Temp
-11 -11 -11 -11 -11 -11 -11 -11 -10 -11 -11 -11 -11 -10 -9 -10 -10 -10 -10 -10 -10 -9 -10 -10 -10 -10 -11 -11 -11 -11 -11 -11 -11 -11 -11 -11 -11 -11 -11 -11 -11 -11 -11 -12
-11 -11 -11 -11 -11 -11 -11 -11 -11 -11 -11 -11 -11 -11 -11 -11 -11 -11 -10 -10 -10 -11 -11 -10 -10 -10 -10 -11 -11 -11 -11 -11 -11 -11 -11 -11 -11 -11 -11 -11 -11 -11 -11 -12
-11 -11 -11 -11 -11 -11 -11 -11 -11 -11 -11 -11 -11 -10 -11 -12 -12 -11 -11 -12 -12 -11 -11 -11 -11 -11 -11 -11 -11 -11 -11 -11 -11 -11 -11 -11 -11 -11 -11 -12 -12 -11 -11 -11
-12 -12 -12 -12 -12 -12 -12 -12 -12 -12 -12 -11 -12 -10 -11 -12 -12 -11 -12 -12 -13 -13 -13 -12 -12 -11 -11 -11 -11 -11 -11 -11 -11 -12 -12 -12 -12 -12 -12 -12 -12 -12 -12 -11
-13 -13 -13 -13 -13 -13 -13 -13 -13 -13 -12 -12 -12 -12 -11 -13 -12 -12 -13 -14 -15 -15 -15 -15 -15 -14 -12 -12 -12 -12 -12 -12 -12 -12 -13 -13 -13 -13 -13 -12 -13 -12 -12 -12
-14 -13 -14 -13 -14 -14 -13 -13 -13 -14 -13 -12 -13 -12 -12 -13 -13 -15 -15 -16 -16 -17 -16 -16 -16 -16 -15 -14 -14 -13 -13 -13 -13 -13 -13 -13 -14 -13 -13 -13 -13 -13 -13 -12
-14 -14 -14 -14 -14 -15 -15 -15 -14 -15 -14 -14 -13 -13 -12 -15 -15 -16 -16 -16 -17 -17 -17 -17 -17 -16 -16 -15 -15 -14 -14 -14 -14 -14 -14 -14 -14 -14 -14 -14 -13 -13 -13 -13
-14 -14 -14 -14 -14 -15 -15 -16 -16 -16 -16 -15 -15 -14 -14 -15 -16 -16 -15 -15 -16 -16 -16 -16 -17 -17 -17 -16 -16 -15 -16 -16 -16 -14 -14 -15 -15 -14 -15 -15 -15 -14 -14 -14
-16 -15 -16 -16 -16 -16 -16 -16 -17 -17 -16 -16 -15 -15 -14 -15 -15 -15 -15 -15 -15 -15 -16 -17 -18 -18 -17 -16 -16 -15 -16 -16 -16 -17 -16 -15 -15 -15 -15 -16 -16 -15 -15 -15
-16 -16 -16 -17 -17 -17 -17 -17 -17 -18 -18 -18 -16 -16 -15 -16 -16 -16 -16 -17 -18 -18 -17 -18 -18 -19 -18 -18 -18 -17 -17 -17 -17 -18 -17 -16 -16 -16 -16 -15 -16 -15 -16 -16
-18 -18 -17 -17 -17 -18 -18 -18 -19 -19 -19 -19 -19 -18 -17 -18 -18 -18 -19 -19 -19 -19 -19 -19 -19 -19 -18 -18 -18 -19 -19 -19 -18 -18 -18 -17 -17 -17 -17 -17 -16 -16 -15 -16
-19 -19 -18 -18 -19 -19 -19 -20 -20 -20 -20 -20 -20 -20 -20 -20 -20 -21 -20 -20 -20 -20 -20 -20 -20 -20 -20 -20 -21 -21 -20 -20 -19 -19 -18 -18 -18 -17 -18 -19 -18 -18 -17 -17
-19 -19 -19 -19 -19 -20 -20 -20 -20 -21 -21 -22 -22 -22 -21 -21 -21 -21 -21 -21 -21 -21 -21 -21 -21 -21 -21 -21 -21 -21 -21 -20 -20 -20 -20 -20 -19 -19 -19 -19 -20 -19 -18 -18
-20 -20 -20 -20 -20 -20 -21 -21 -21 -22 -23 -22 -22 -22 -22 -23 -23 -23 -22 -22 -22 -22 -22 -22 -21 -22 -22 -21 -21 -21 -21 -21 -21 -21 -21 -21 -20 -20 -20 -20 -20 -21 -20 -20
-21 -20 -21 -21 -21 -21 -22 -21 -21 -22 -23 -24 -23 -24 -23 -23 -23 -23 -23 -23 -23 -23 -23 -22 -22 -21 -21 -21 -21 -20 -21 -21 -21 -22 -23 -23 -21 -21 -21 -21 -21 -21 -21 -21
-21 -21 -22 -22 -23 -23 -23 -22 -22 -23 -23 -24 -24 -24 -24 -24 -24 -24 -24 -23 -23 -23 -23 -23 -23 -23 -22 -22 -22 -22 -22 -22 -22 -23 -23 -23 -23 -23 -22 -22 -22 -22 -22 -22
-22 -23 -23 -23 -23 -23 -23 -22 -24 -24 -24 -24 -24 -24 -24 -25 -25 -24 -24 -25 -25 -25 -24 -25 -26 -25 -25 -25 -24 -24 -24 -23 -23 -24 -25 -25 -25 -24 -24 -24 -24 -23 -23 -23
-23 -24 -24 -24 -24 -24 -23 -24 -24 -25 -24 -24 -25 -25 -26 -25 -25 -26 -27 -27 -27 -27 -28 -28 -28 -28 -29 -29 -28 -28 -28 -27 -27 -26 -26 -26 -26 -26 -25 -25 -25 -25 -25 -24
-24 -25 -25 -25 -25 -25 -24 -25 -26 -26 -25 -26 -26 -27 -27 -26 -26 -27 -29 -29 -29 -29 -29 -30 -30 -30 -30 -30 -30 -30 -30 -30 -30 -29 -29 -28 -28 -28 -27 -27 -28 -28 -27 -27
-24 -25 -25 -26 -26 -26 -24 -25 -26 -27 -26 -27 -28 -28 -28 -29 -29 -29 -30 -30 -31 -31 -31 -31 -31 -31 -31 -31 -31 -31 -31 -31 -30 -30 -30 -30 -30 -30 -29 -29 -29 -28 -28 -28
-25 -26 -26 -26 -27 -26 -26 -27 -27 -28 -29 -28 -29 -30 -30 -30 -30 -30 -31 -31 -31 -31 -31 -31 -31 -31 -31 -31 -31 -31 -31 -31 -30 -30 -30 -30 -30 -29 -29 -29 -28 -28 -28 -28
-26 -27 -26 -27 -28 -28 -28 -28 -30 -30 -30 -31 -31 -31 -31 -31 -31 -31 -32 -31 -31 -31 -31 -31 -31 -31 -31 -31 -31 -31 -31 -31 -30 -30 -30 -30 -30 -29 -29 -29 -29 -29 -28 -28
-28 -28 -28 -29 -29 -29 -30 -31 -32 -32 -32 -32 -32 -32 -32 -32 -32 -32 -32 -32 -32 -32 -32 -32 -32 -32 -32 -32 -32 -32 -32 -32 -31 -31 -31 -31 -30 -30 -30 -30 -30 -30 -30 -29
-28 -28 -29 -29 -29 -31 -32 -33 -33 -33 -33 -32 -32 -32 -32 -32 -32 -32 -32 -32 -32 -32 -32 -32 -33 -33 -33 -34 -34 -34 -33 -33 -32 -32 -31 -31 -31 -31 -31 -30 -29 -29 -29 -29
-29 -29 -29 -31 -32 -33 -33 -33 -33 -33 -33 -33 -33 -33 -33 -33 -33 -32 -32 -32 -33 -33 -33 -33 -34 -34 -35 -35 -35 -34 -34 -33 -34 -33 -33 -32 -31 -31 -31 -31 -31 -31 -31 -31
-30 -30 -31 -32 -33 -34 -34 -33 -33 -33 -33 -33 -33 -33 -33 -33 -33 -33 -33 -33 -33 -34 -34 -35 -36 -36 -36 -36 -35 -35 -34 -35 -34 -33 -33 -32 -31 -31 -31 -31 -32 -32 -32 -32
Height
5793 5795 5793 5793 5791 5790 5786 5787 5786 5786 5784 5780 5778 5783 5782 5781 5781 5786 5786 5783 5780 5782 5783 5781 5777 5775 5775 5776 5776 5776 5776 5776 5774 5773 5774 5775 5776 5775 5776 5777 5777 5778 5780 5780
5784 5785 5785 5780 5782 5780 5778 5776 5775 5773 5772 5771 5770 5767 5772 5774 5772 5769 5770 5773 5771 5771 5770 5770 5770 5767 5766 5766 5766 5765 5765 5765 5765 5765 5764 5763 5763 5765 5765 5764 5765 5766 5767 5769
5773 5775 5770 5770 5769 5770 5770 5767 5765 5763 5760 5760 5755 5755 5756 5760 5759 5757 5759 5759 5760 5761 5760 5760 5759 5758 5756 5755 5755 5756 5756 5755 5753 5753 5755 5754 5753 5753 5753 5754 5754 5754 5755 5757
5763 5765 5764 5762 5760 5758 5758 5758 5756 5753 5752 5751 5747 5744 5747 5746 5741 5741 5743 5742 5741 5742 5745 5747 5749 5748 5747 5746 5744 5743 5743 5743 5743 5743 5742 5741 5742 5743 5744 5744 5743 5742 5741 5742
5753 5752 5752 5754 5753 5748 5747 5746 5746 5744 5742 5738 5741 5738 5734 5730 5727 5729 5730 5729 5731 5733 5733 5734 5734 5735 5736 5735 5732 5732 5730 5729 5730 5730 5730 5729 5730 5730 5731 5732 5731 5731 5730 5729
5742 5741 5742 5742 5742 5741 5739 5737 5734 5730 5730 5730 5729 5728 5727 5724 5722 5720 5720 5719 5719 5719 5721 5721 5721 5722 5723 5722 5722 5721 5717 5716 5717 5716 5716 5716 5716 5716 5716 5717 5717 5718 5718 5717
5732 5735 5733 5730 5731 5730 5730 5727 5723 5721 5720 5719 5718 5719 5718 5716 5713 5713 5711 5709 5708 5707 5706 5706 5707 5708 5709 5709 5709 5707 5705 5705 5704 5701 5701 5701 5701 5699 5700 5701 5701 5700 5701 5702
5719 5722 5721 5720 5718 5718 5717 5717 5716 5709 5710 5709 5712 5710 5709 5707 5702 5700 5700 5698 5695 5695 5693 5692 5692 5692 5693 5693 5693 5691 5689 5688 5686 5686 5686 5685 5684 5683 5681 5682 5683 5683 5683 5684
5707 5707 5708 5709 5707 5706 5704 5702 5700 5695 5697 5693 5700 5702 5703 5697 5687 5687 5686 5684 5681 5680 5677 5676 5676 5676 5676 5677 5676 5676 5674 5670 5669 5667 5670 5669 5668 5667 5664 5664 5663 5664 5664 5664
5695 5694 5695 5694 5693 5690 5690 5690 5687 5683 5678 5675 5683 5685 5689 5680 5673 5672 5670 5665 5663 5664 5663 5660 5659 5659 5658 5656 5656 5655 5654 5654 5653 5651 5648 5648 5648 5648 5647 5646 5644 5642 5642 5642
5679 5677 5683 5683 5684 5678 5676 5676 5675 5670 5667 5660 5660 5668 5675 5662 5657 5653 5651 5650 5647 5645 5644 5642 5641 5639 5638 5634 5633 5633 5632 5630 5627 5626 5625 5624 5623 5623 5622 5623 5624 5623 5620 5619
5663 5658 5664 5670 5672 5665 5659 5660 5659 5652 5651 5646 5642 5645 5661 5652 5644 5638 5635 5633 5632 5629 5626 5622 5618 5614 5613 5611 5608 5606 5607 5608 5605 5603 5601 5599 5597 5598 5600 5600 5598 5597 5596 5596
5649 5644 5645 5650 5658 5649 5643 5645 5646 5641 5634 5629 5628 5627 5637 5635 5625 5621 5619 5620 5616 5611 5607 5603 5600 5597 5593 5590 5588 5585 5582 5581 5580 5578 5577 5577 5576 5575 5574 5574 5574 5573 5573 5572
5635 5635 5632 5631 5636 5634 5625 5627 5629 5622 5612 5614 5611 5612 5619 5617 5609 5605 5598 5598 5596 5591 5590 5586 5581 5575 5573 5572 5568 5563 5559 5557 5554 5552 5551 5550 5551 5551 5552 5550 5547 5547 5547 5548
5619 5619 5617 5617 5615 5613 5611 5611 5617 5609 5605 5593 5597 5593 5598 5596 5589 5586 5583 5578 5574 5571 5568 5565 5563 5556 5551 5548 5545 5541 5534 5529 5527 5524 5522 5522 5523 5523 5523 5523 5520 5519 5518 5518
5603 5601 5601 5601 5598 5593 5589 5599 5595 5591 5588 5579 5576 5570 5577 5569 5566 5564 5558 5554 5554 5549 5543 5535 5532 5528 5525 5524 5519 5514 5509 5503 5499 5494 5490 5488 5487 5487 5487 5487 5487 5486 5484 5483
5589 5585 5580 5579 5581 5573 5571 5584 5573 5569 5572 5565 5555 5554 5551 5547 5541 5539 5534 5529 5523 5519 5516 5511 5501 5496 5491 5490 5486 5483 5479 5474 5470 5465 5462 5459 5455 5454 5453 5453 5453 5453 5451 5450
5574 5567 5561 5558 5560 5550 5564 5560 5552 5547 5548 5542 5535 5526 5523 5519 5517 5513 5506 5502 5498 5496 5492 5485 5480 5475 5467 5461 5459 5455 5450 5446 5442 5438 5434 5431 5427 5424 5421 5417 5414 5413 5410 5412
5558 5553 5542 5538 5538 5533 5545 5540 5533 5525 5527 5522 5515 5509 5502 5498 5496 5495 5484 5481 5477 5473 5470 5467 5463 5458 5449 5443 5439 5435 5431 5424 5419 5414 5411 5406 5400 5395 5391 5388 5385 5382 5375 5374
5543 5539 5528 5525 5513 5510 5524 5515 5507 5499 5495 5500 5490 5485 5480 5474 5470 5476 5467 5463 5460 5455 5451 5450 5445 5440 5433 5427 5421 5416 5410 5404 5398 5393 5388 5383 5375 5369 5363 5357 5353 5349 5345 5343
5523 5517 5513 5508 5494 5492 5496 5496 5487 5475 5478 5473 5470 5466 5460 5457 5455 5453 5453 5449 5444 5441 5439 5435 5429 5422 5416 5411 5405 5398 5391 5383 5377 5371 5365 5359 5352 5344 5337 5330 5324 5317 5312 5308
5499 5501 5502 5488 5479 5474 5478 5472 5466 5462 5454 5452 5449 5448 5443 5441 5441 5438 5433 5432 5428 5425 5420 5416 5412 5406 5398 5392 5386 5380 5372 5363 5355 5348 5340 5332 5325 5317 5310 5303 5299 5290 5281 5275
5481 5487 5480 5471 5459 5457 5458 5450 5446 5442 5439 5438 5433 5433 5428 5426 5424 5421 5418 5415 5413 5408 5403 5399 5394 5388 5381 5373 5366 5360 5351 5342 5335 5326 5316 5307 5299 5292 5284 5276 5270 5264 5256 5250
5465 5471 5454 5450 5452 5444 5442 5438 5433 5429 5425 5424 5421 5418 5416 5412 5410 5407 5403 5400 5396 5391 5386 5381 5376 5371 5364 5357 5349 5339 5331 5323 5315 5306 5296 5288 5280 5272 5263 5256 5249 5243 5236 5231
5451 5446 5445 5431 5426 5426 5427 5423 5420 5414 5412 5410 5408 5405 5403 5399 5395 5391 5388 5383 5379 5374 5369 5365 5359 5354 5348 5340 5332 5322 5313 5305 5297 5288 5280 5273 5265 5256 5249 5242 5233 5227 5219 5211
5435 5430 5422 5413 5416 5411 5408 5408 5405 5399 5397 5396 5393 5390 5388 5384 5380 5377 5372 5368 5363 5358 5353 5348 5342 5337 5332 5325 5316 5307 5299 5290 5283 5276 5267 5260 5253 5245 5238 5231 5224 5213 5203 5193
Wind_Speed
45 43 44 45 46 48 52 53 54 52 49 50 50 45 48 50 49 44 43 43 44 42 40 42 41 44 43 40 40 42 41 40 40 39 39 36 36 37 35 38 41 42 42 43
49 46 48 53 51 51 53 54 54 55 55 55 54 55 49 48 50 50 49 44 44 43 40 38 40 40 43 43 39 39 38 39 38 40 42 39 40 41 40 41 41 41 41 42
53 48 51 53 52 48 48 48 49 53 55 54 57 57 55 51 50 56 54 53 48 45 44 44 43 42 42 43 44 43 42 43 44 46 45 46 45 43 44 42 41 42 41 43
44 42 43 44 46 47 47 45 49 52 55 59 60 62 59 59 62 62 55 51 45 40 37 35 38 41 45 45 47 47 48 49 49 48 46 47 47 46 46 43 40 42 43 43
43 43 44 42 43 45 47 46 48 47 50 55 56 59 63 59 62 60 53 48 43 37 32 33 39 38 44 47 47 49 52 51 49 49 52 52 51 51 49 50 47 49 49 49
43 46 42 44 44 44 48 49 51 52 54 56 55 58 60 60 57 52 49 51 49 48 45 43 41 35 39 42 45 48 57 56 50 51 53 51 51 49 51 57 58 55 55 56
48 44 47 48 47 46 47 51 53 54 54 55 56 56 58 52 54 54 53 53 55 55 52 49 49 47 41 44 47 56 61 59 52 55 61 59 58 62 62 59 61 62 58 60
50 50 49 51 51 50 51 49 49 53 54 55 54 58 60 59 62 63 62 63 63 62 62 61 55 47 47 49 53 59 62 61 53 56 67 66 65 69 67 67 65 62 57 60
54 56 53 53 51 50 50 48 48 51 53 57 55 54 53 61 64 65 65 66 67 66 61 59 53 57 59 56 55 59 62 62 73 65 68 75 77 79 74 73 73 71 66 62
48 49 47 45 48 48 47 49 51 52 53 58 58 56 55 59 64 65 67 64 62 59 61 62 60 58 60 61 65 67 68 75 74 71 69 72 71 74 75 77 79 80 75 72
46 47 49 50 48 49 50 50 50 52 55 60 61 58 54 58 60 63 57 53 61 65 67 67 68 73 77 79 77 75 68 69 71 72 76 78 77 78 85 83 80 82 83 82
50 54 54 51 49 50 51 50 51 55 58 59 59 57 41 47 52 58 61 63 66 70 74 76 80 82 82 80 76 71 65 71 75 75 80 83 84 82 88 87 78 80 80 81
52 57 58 59 54 53 53 53 53 55 58 59 59 58 52 56 57 61 65 68 71 72 71 76 72 57 60 62 67 69 72 75 79 81 81 80 85 95 93 93 84 85 88 87
54 55 59 60 57 57 59 58 57 59 61 62 64 63 59 61 64 68 73 71 71 71 71 73 76 77 80 80 82 80 79 78 79 81 81 83 84 85 89 89 90 88 91 93
57 59 59 60 61 60 62 63 62 62 63 67 67 67 66 66 70 72 73 75 76 77 78 79 81 90 92 92 93 97 103 101 100 107 106 100 99 98 103 107 109 108 107 106
61 63 62 63 63 64 66 65 64 65 66 69 71 74 70 75 76 78 80 82 81 83 86 90 92 94 96 97 98 101 105 109 112 114 111 108 106 106 107 110 109 109 109 110
63 64 66 68 66 70 71 65 68 70 68 71 76 76 75 76 78 80 81 80 81 82 83 85 90 94 98 99 102 105 107 110 112 110 105 106 108 108 108 108 109 109 110 112
63 66 68 70 68 73 69 69 71 73 74 77 78 80 79 79 78 75 72 74 74 72 70 72 74 76 79 81 82 84 87 91 96 99 102 102 102 102 103 105 106 108 109 109
64 65 70 72 72 75 71 71 73 76 77 76 77 74 75 76 73 69 66 66 65 63 63 63 64 65 68 71 72 73 75 78 80 83 85 87 90 92 94 96 96 97 100 103
66 67 71 72 76 78 75 76 78 79 84 74 70 70 67 66 67 62 58 55 54 55 56 56 58 61 63 66 69 71 73 74 76 78 79 81 83 85 87 89 91 92 94 95
68 69 70 73 77 80 78 76 77 76 69 70 64 61 59 58 57 56 52 51 52 52 53 54 57 60 63 65 67 70 72 75 76 78 79 80 82 84 86 87 89 91 92 93
72 70 70 73 76 79 76 74 67 60 61 58 56 55 56 55 53 52 51 51 52 54 56 58 59 61 64 66 68 70 73 76 78 79 79 80 82 82 82 83 83 84 87 88
70 65 70 73 74 74 65 58 57 58 56 54 54 52 53 52 51 51 53 53 54 56 58 59 61 62 64 67 69 71 73 75 75 74 75 76 77 75 71 70 68 66 66 67
68 68 68 70 67 61 52 51 51 49 50 51 51 51 51 52 51 53 54 55 56 56 57 60 61 63 64 65 66 69 70 69 70 69 69 68 62 59 61 62 62 60 61 63
66 63 61 60 57 51 49 48 48 50 49 49 48 49 50 52 53 54 55 55 56 57 59 60 61 63 61 61 63 66 66 64 60 61 60 58 53 46 45 45 48 51 56 59
57 53 53 55 50 51 53 50 50 52 51 50 51 51 51 52 52 54 56 55 57 57 57 58 58 57 57 59 61 59 56 49 53 54 51 42 40 41 42 42 42 51 53 48
Wind_Direction
280 284 286 282 282 288 289 292 292 289 284 282 281 283 286 291 291 291 289 288 284 288 292 285 276 280 279 274 274 273 271 265 264 263 266 265 270 266 266 269 268 265 263 263
281 282 282 283 283 281 284 287 289 288 289 289 289 286 287 286 292 291 286 283 285 289 287 285 281 276 277 278 276 270 268 265 262 262 257 260 264 264 266 265 266 268 268 267
280 279 279 279 279 280 281 283 283 285 285 285 287 288 289 291 288 286 288 289 288 281 280 281 278 278 278 276 276 274 270 268 265 267 264 261 262 259 259 260 264 265 265 265
282 281 279 277 282 285 285 285 286 288 288 288 287 287 290 293 293 290 295 300 304 304 297 284 276 272 274 276 276 274 274 272 274 269 264 262 257 254 259 256 259 261 262 261
280 280 280 284 284 283 287 288 287 287 287 287 291 291 292 293 292 296 304 306 303 297 291 278 284 282 276 274 272 274 273 268 267 268 264 260 260 260 254 255 262 269 264 264
279 281 283 278 279 285 287 288 289 289 288 286 287 286 290 292 295 301 301 302 300 299 296 291 291 280 266 261 261 266 263 261 263 264 261 259 259 255 262 260 267 268 265 262
279 281 281 284 287 285 287 288 290 290 288 288 288 289 286 292 293 296 296 295 297 295 295 298 298 289 275 263 263 257 256 256 259 263 263 260 259 262 273 268 265 266 264 260
281 280 281 285 287 289 288 287 284 284 284 283 285 287 286 288 292 291 291 290 290 291 292 293 290 276 271 265 258 259 260 257 253 258 265 259 261 267 271 271 268 265 263 255
287 286 289 291 291 291 292 290 288 285 284 283 285 284 283 283 287 288 288 289 289 287 287 287 277 275 279 263 258 256 259 258 253 272 269 262 262 268 268 269 273 270 265 256
287 288 288 285 287 288 287 287 289 290 288 286 287 286 289 288 286 285 287 288 285 282 280 280 278 268 259 258 260 257 256 260 264 266 262 260 261 258 263 268 271 271 268 263
290 284 287 289 291 284 285 286 285 282 281 283 286 288 291 287 287 285 281 278 281 280 280 278 275 272 270 271 271 272 269 264 265 264 257 254 254 254 255 263 264 263 263 262
284 284 289 291 289 286 283 282 281 281 284 280 279 281 276 271 272 272 270 271 272 274 275 276 276 274 273 276 276 275 269 262 257 258 254 251 250 251 253 263 259 258 259 260
284 283 287 291 293 285 279 280 282 282 280 279 279 281 279 279 272 266 269 271 272 275 276 276 275 269 264 262 260 258 257 258 255 255 256 260 264 264 265 265 256 258 258 258
277 279 284 285 288 285 283 285 286 284 279 281 278 281 278 276 274 274 277 276 275 275 274 273 270 270 277 268 265 262 258 262 267 269 267 266 261 264 263 260 261 261 259 262
276 279 277 279 282 279 278 279 282 276 279 279 284 278 279 278 275 275 276 277 278 277 276 274 270 272 272 272 271 271 273 272 267 274 279 278 275 272 272 271 271 272 272 272
276 276 276 277 278 277 277 281 282 281 282 282 283 282 283 280 279 280 280 279 279 278 276 275 274 271 270 268 269 270 270 274 276 277 279 278 277 276 274 272 272 271 272 273
275 276 277 276 277 277 277 285 282 282 284 286 284 285 284 284 284 284 284 283 282 280 279 278 277 277 275 273 271 270 270 270 272 276 279 279 278 277 275 273 272 272 271 271
275 278 279 281 281 279 287 285 286 287 287 287 289 290 291 291 290 288 285 284 284 283 281 280 280 281 282 282 281 281 280 279 278 278 278 278 278 278 278 278 278 277 276 274
278 279 282 282 283 284 286 286 286 285 285 287 288 289 287 286 286 286 284 284 285 284 283 282 282 282 282 283 283 282 282 283 283 282 282 281 281 279 279 278 278 278 277 277
278 279 280 283 285 286 290 289 289 291 289 294 289 289 289 287 286 287 285 286 287 286 287 286 285 284 284 285 286 287 286 285 285 285 284 283 283 282 281 280 279 278 277 276
281 281 282 284 285 287 288 290 290 288 295 289 289 287 286 286 287 288 287 286 284 284 285 285 286 286 285 286 286 287 288 289 289 288 288 287 286 285 284 283 282 281 279 277
280 282 286 284 282 283 290 290 287 289 289 289 288 287 287 286 287 288 287 287 288 290 290 289 290 290 291 291 291 291 291 291 291 291 291 289 288 288 287 286 285 284 282 280
280 283 284 281 285 288 291 288 290 291 290 288 288 289 289 291 290 288 289 291 291 290 291 292 293 293 294 294 295 295 294 294 295 295 295 294 294 295 294 291 290 289 287 286
281 283 280 282 285 284 283 286 289 287 286 288 289 289 290 289 287 288 290 291 291 293 294 294 295 294 294 296 297 297 298 299 299 298 297 298 300 298 298 297 296 293 291 289
282 281 287 281 280 284 286 287 286 287 289 289 289 288 287 286 288 290 292 293 295 296 294 294 294 294 297 299 300 301 302 301 299 299 303 304 303 303 303 305 305 305 303 297
285 286 280 280 287 287 289 287 289 290 291 291 290 288 288 289 291 293 293 295 295 293 293 292 294 298 301 303 303 301 301 301 302 305 306 305 307 310 312 311 310 313 319 314